FENGYUN 1C DEB

Satellite information

Favourite Embed

Satellite Type and Status

DEBRISIN ORBIT

Key statistics

Satellite FENGYUN 1C DEB at a glance.

Uptime

9496

Days in orbit

Revolutions

≈ 14.2

Per day

Orbit

SSO

Sun Synchronous Orbit

Inclination

98.4

Latest

Satellite identification and parameters

Extended collection of information and parameters for FENGYUN 1C DEB.

Object identification

Identified? True

Debris? True

Object name: FENGYUN 1C DEB

International designator: 1999-025EUR

Object number (NORAD): 38801

Object ID (CCSDS): 38801

Country: PEOPLES REPUBLIC OF CHINA (PRC)

Current information (Y/N): Y

RCS size: SMALL

Orbital parameters

Period: 101.154 minutes

Inclination: 98.3979 deg

SMA: 7191.433 km

Apoapsis: 1065.307 km

Periapsis: 561.29 km

RAAN: 188.4405 deg

Eccentricy: 0.0350429

Argument of periapsis: 272.3513 deg

Mean anomaly: 105.2808 deg

Mean motion: 14.23572485 rev/day

Mean motion (dot): 0.00001939 rev/day2

B* drag term: 0.00046334 1/REarth

Two-line elements (TLE)

Creation date: May 8, 2025, 10:36 p.m.

Reference frame: TEME

Reference center: EARTH

Epoch: May 8, 2025, 10:09 a.m. UTC

TLE line 0: 0 FENGYUN 1C DEB

TLE line 1: 1 38801U 99025EUR 25128.42298598 .00001939 00000-0 46334-3 0 9995

TLE line 2: 2 38801 98.3979 188.4405 0350429 272.3513 105.2808 14.23572485787381

Live tracking on map

Real-time ground track for satellite FENGYUN 1C DEB.

In-orbit conjunctions

A list of the most updated potential collisions computed for object FENGYUN 1C DEB.

Target Orbit TCA Probability of collision Miss distance Type
DELTA 1 R/B(+CAMEO) SSO 2024-12-10 10:14:45 0.0001099746 896.0 (m) ROCKET BODY
CZ-6A DEB LEO 2024-10-12 21:20:22 0.0001122139 799.0 (m) DEBRIS

Associated space launch

Chinese polar orbiting meteorological satellite

FENGYUN 1C DEB was lifted into orbit during the mission ‘Long March 4B | Feng Yun 1C’, on board a Long March 4B space rocket.

The launch took place on May 10, 1999, 1:33 a.m. from Launch Complex 7.

For more information about the launch, click the button.

Launch to space Long March 4B | Feng Yun 1C
Long March 4B | Feng Yun 1C

Agency: N/A

Status: Launch Successful

Launch date: May 10, 1999, 1:33 a.m. UTC

Rocket: Long March 4B

Launch pad: Launch Complex 7

Location: Taiyuan Satellite Launch Center, People's Republic of China

...

Latest news about this satellite

There are no fresh news available about this satellite. Check back as we update our databases every day.


Newsletter sign-up

Weekly statistics, charts and insights to help you stay on top of the space industry.